Weather History for Decorah, IA

Change the Weather History Date:

Sunday, May 26, 2013

  Actual Average Record
Temperature  
Mean Temperature 50 °F -  
Max Temperature 55 °F 72 °F 93 °F (1967)
Min Temperature 44 °F 50 °F 32 °F (1961)
Degree Days  
Heating Degree Days 16    
Moisture  
Dew Point 46 °F    
Average Humidity 85    
Maximum Humidity 100    
Minimum Humidity 71    
Precipitation  
Precipitation 0.93 in - - ()
Sea Level Pressure  
Sea Level Pressure 30.17 in    
Wind  
Wind Speed 10 mph (ESE)    
Max Wind Speed 20 mph    
Max Gust Speed 25 mph    
Visibility 8 miles    
Events Rain    
Averages and records for this station are not official NWS values.
T = Trace of Precipitation, MM = Missing Value Source: NWS Daily Summary

Daily Weather History Graph

Daily Weather History Graph

Search for Another Location

Airport:

Trip Planner

Search our weather history database for the weather conditions in past years. The results will help you decide how hot, cold, wet, or windy it might be!

Date:

Astronomy

May. 26, 2013 Rise Set
Actual Time 5:33 AM CDT 8:35 PM CDT
Civil Twilight 4:58 AM CDT 9:09 PM CDT
Nautical Twilight 4:15 AM CDT 9:53 PM CDT
Astronomical Twilight 3:23 AM CDT 10:45 PM CDT
Moon 10:22 PM CDT (5/26) 7:03 AM CDT (5/26)
Length of Visible Light 16h 10m
Length of Day
15h 02m
Waning Gibbous, 96% of the Moon is Illuminated
May 26
Waning Gibbous
May 31
Last Quarter
Jun 8
New
Jun 16
First Quarter
Jun 23
Full

Hourly Weather History & Observations

Time (CDT) Temp. Windchill Dew Point Humidity Pressure Visibility Wind Dir Wind Speed Gust Speed Precip Events Conditions
12:15 AM 50.0 °F - 42.8 °F 76% 30.25 in 10.0 mi East 6.9 mph - N/A   Overcast
12:35 AM 50.0 °F - 42.8 °F 76% 30.23 in 10.0 mi East 11.5 mph - N/A   Overcast
12:55 AM 50.0 °F - 42.8 °F 76% 30.22 in 10.0 mi ESE 10.4 mph - N/A   Overcast
1:15 AM 50.0 °F - 42.8 °F 76% 30.22 in 10.0 mi ESE 8.1 mph - N/A   Overcast
1:35 AM 50.0 °F - 41.0 °F 71% 30.23 in 10.0 mi ESE 6.9 mph - N/A   Overcast
1:55 AM 50.0 °F - 41.0 °F 71% 30.21 in 10.0 mi Variable 6.9 mph - N/A   Overcast
2:15 AM 50.0 °F - 41.0 °F 71% 30.21 in 10.0 mi ESE 5.8 mph - N/A   Overcast
2:35 AM 50.0 °F - 41.0 °F 71% 30.21 in 10.0 mi SE 6.9 mph - N/A   Mostly Cloudy
2:55 AM 48.2 °F - 41.0 °F 76% 30.21 in 10.0 mi ESE 5.8 mph - N/A   Partly Cloudy
3:15 AM 48.2 °F - 41.0 °F 76% 30.21 in 10.0 mi ESE 5.8 mph - N/A   Clear
3:35 AM 48.2 °F - 41.0 °F 76% 30.21 in 10.0 mi East 6.9 mph - N/A   Scattered Clouds
3:55 AM 48.2 °F - 41.0 °F 76% 30.20 in 10.0 mi ESE 9.2 mph - N/A   Partly Cloudy
4:15 AM 48.2 °F - 41.0 °F 76% 30.20 in 10.0 mi SE 5.8 mph - N/A   Partly Cloudy
4:35 AM 48.2 °F - 39.2 °F 71% 30.21 in 10.0 mi ESE 8.1 mph - N/A   Partly Cloudy
4:55 AM 48.2 °F - 39.2 °F 71% 30.20 in 10.0 mi ESE 9.2 mph 15.0 mph N/A   Mostly Cloudy
5:15 AM 48.2 °F - 39.2 °F 71% 30.20 in 10.0 mi ESE 9.2 mph 15.0 mph N/A   Overcast
5:35 AM 48.2 °F - 39.2 °F 71% 30.21 in 10.0 mi ESE 11.5 mph - N/A   Mostly Cloudy
5:55 AM 48.2 °F - 41.0 °F 76% 30.19 in 10.0 mi ESE 10.4 mph - N/A   Overcast
6:15 AM 48.2 °F - 41.0 °F 76% 30.22 in 10.0 mi ESE 8.1 mph - N/A   Overcast
6:35 AM - - - N/A% 30.22 in 10.0 mi North - - N/A   Overcast
6:55 AM 48.2 °F - 41.0 °F 76% 30.21 in 10.0 mi ESE 13.8 mph - N/A   Overcast
7:15 AM 48.2 °F - 39.2 °F 71% 30.22 in 9.0 mi ESE 10.4 mph 20.7 mph N/A   Mostly Cloudy
7:35 AM 48.2 °F - 41.0 °F 76% 30.23 in 7.0 mi SE 8.1 mph 13.8 mph N/A Rain Light Rain
7:55 AM 48.2 °F - 41.0 °F 76% 30.25 in 9.0 mi Variable 5.8 mph - N/A   Overcast
8:15 AM 46.4 °F - 42.8 °F 87% 30.25 in 3.0 mi Calm Calm - N/A Rain Light Rain
8:35 AM 46.4 °F 43.5 °F 42.8 °F 87% 30.24 in 2.5 mi ESE 5.8 mph - N/A Rain Light Rain
8:55 AM 46.4 °F 42.9 °F 42.8 °F 87% 30.24 in 3.0 mi ESE 6.9 mph - 0.23 in Rain Rain
9:15 AM 44.6 °F 41.4 °F 42.8 °F 93% 30.23 in 3.0 mi ESE 5.8 mph - N/A Rain Light Rain
9:35 AM 44.6 °F 40.7 °F 42.8 °F 93% 30.23 in 2.0 mi Variable 6.9 mph - N/A Rain Rain
9:55 AM 44.6 °F 39.2 °F 42.8 °F 93% 30.23 in 2.0 mi SE 10.4 mph - 0.31 in Rain Rain
10:15 AM 44.6 °F 40.2 °F 42.8 °F 93% 30.25 in 2.5 mi SE 8.1 mph 15.0 mph N/A Rain Rain
10:35 AM 44.6 °F 39.7 °F 42.8 °F 93% 30.25 in 3.0 mi SE 9.2 mph 15.0 mph N/A   Overcast
10:55 AM 44.6 °F 38.8 °F 42.8 °F 93% 30.23 in 3.0 mi ESE 11.5 mph - 0.25 in   Overcast
11:15 AM 44.6 °F 38.1 °F 42.8 °F 93% 30.20 in 3.0 mi ESE 13.8 mph 19.6 mph N/A   Overcast
11:35 AM 44.6 °F 37.8 °F 44.6 °F 100% 30.18 in 4.0 mi ESE 15.0 mph 21.9 mph N/A   Scattered Clouds
11:55 AM 46.4 °F 40.7 °F 44.6 °F 93% 30.18 in 9.0 mi ESE 12.7 mph 20.7 mph 0.12 in Rain Light Rain
12:15 PM 46.4 °F 41.1 °F 44.6 °F 93% 30.17 in 10.0 mi ESE 11.5 mph 23.0 mph N/A   Partly Cloudy
12:35 PM 48.2 °F - 46.4 °F 93% 30.17 in 10.0 mi ESE 18.4 mph - N/A   Scattered Clouds
12:55 PM 50.0 °F - 46.4 °F 87% 30.16 in 10.0 mi ESE 15.0 mph 21.9 mph N/A   Mostly Cloudy
1:15 PM 50.0 °F - 46.4 °F 87% 30.16 in 10.0 mi ESE 17.3 mph 24.2 mph N/A   Mostly Cloudy
1:35 PM 51.8 °F - 50.0 °F 94% 30.16 in 10.0 mi East 13.8 mph 20.7 mph N/A   Overcast
1:55 PM 53.6 °F - 50.0 °F 88% 30.16 in 10.0 mi East 15.0 mph - N/A   Overcast
2:15 PM 51.8 °F - 50.0 °F 94% 30.16 in 10.0 mi East 13.8 mph 19.6 mph N/A   Overcast
2:35 PM 51.8 °F - 48.2 °F 88% 30.17 in 10.0 mi East 12.7 mph - N/A   Overcast
2:55 PM 51.8 °F - 48.2 °F 88% 30.19 in 10.0 mi East 9.2 mph 17.3 mph N/A   Overcast
3:15 PM 51.8 °F - 48.2 °F 88% 30.18 in 10.0 mi East 11.5 mph - N/A   Overcast
3:35 PM 51.8 °F - 50.0 °F 94% 30.17 in 10.0 mi East 9.2 mph 16.1 mph N/A   Overcast
3:55 PM 53.6 °F - 50.0 °F 88% 30.17 in 10.0 mi East 15.0 mph - N/A   Overcast
4:15 PM 53.6 °F - 50.0 °F 88% 30.15 in 10.0 mi East 16.1 mph - N/A   Overcast
4:35 PM 53.6 °F - 50.0 °F 88% 30.13 in 10.0 mi East 16.1 mph 21.9 mph N/A   Overcast
4:55 PM 53.6 °F - 50.0 °F 88% 30.13 in 10.0 mi East 13.8 mph 20.7 mph N/A   Overcast
5:15 PM 53.6 °F - 48.2 °F 82% 30.11 in 10.0 mi East 18.4 mph - N/A   Overcast
5:35 PM 53.6 °F - 50.0 °F 88% 30.08 in 10.0 mi ESE 16.1 mph 24.2 mph N/A   Overcast
5:55 PM 53.6 °F - 50.0 °F 88% 30.10 in - East 19.6 mph 25.3 mph N/A   Overcast
6:15 PM 53.6 °F - 50.0 °F 88% 30.10 in 10.0 mi East 13.8 mph 21.9 mph N/A   Overcast
6:35 PM 55.4 °F - 50.0 °F 82% 30.10 in 10.0 mi East 13.8 mph 24.2 mph N/A   Overcast
6:55 PM 55.4 °F - 50.0 °F 82% 30.10 in 10.0 mi East 12.7 mph 24.2 mph N/A   Overcast
7:15 PM 55.4 °F - 50.0 °F 82% 30.09 in 10.0 mi ESE 15.0 mph 21.9 mph N/A   Overcast
7:35 PM 55.4 °F - 50.0 °F 82% 30.10 in 10.0 mi East 11.5 mph - N/A   Overcast
7:55 PM 53.6 °F - 50.0 °F 88% 30.10 in 6.0 mi ESE 9.2 mph 17.3 mph N/A   Haze
8:15 PM 53.6 °F - 51.8 °F 94% 30.11 in 2.0 mi East 9.2 mph - N/A Rain Light Rain
8:35 PM 53.6 °F - 51.8 °F 94% 30.11 in 5.0 mi East 10.4 mph - N/A Rain Light Rain
8:55 PM 53.6 °F - 51.8 °F 94% 30.10 in 4.0 mi East 9.2 mph - 0.02 in Rain Light Rain
9:15 PM 53.6 °F - 51.8 °F 94% 30.07 in 6.0 mi East 13.8 mph - N/A   Overcast
9:35 PM 53.6 °F - 51.8 °F 94% 30.09 in 6.0 mi East 11.5 mph - N/A   Overcast
9:55 PM 53.6 °F - 51.8 °F 94% 30.10 in 7.0 mi East 9.2 mph - N/A   Overcast
10:15 PM 53.6 °F - 51.8 °F 94% 30.10 in 7.0 mi East 9.2 mph 16.1 mph N/A   Overcast
10:35 PM 53.6 °F - 51.8 °F 94% 30.11 in 5.0 mi East 9.2 mph - N/A   Overcast
10:55 PM 53.6 °F - 51.8 °F 94% 30.09 in 4.0 mi East 12.7 mph - N/A   Overcast
11:15 PM 53.6 °F - 51.8 °F 94% 30.09 in 4.0 mi East 11.5 mph - N/A   Overcast
11:35 PM 53.6 °F - 51.8 °F 94% 30.07 in 6.0 mi East 11.5 mph - N/A   Overcast
11:55 PM 53.6 °F - 51.8 °F 94% 30.06 in 7.0 mi East 11.5 mph 18.4 mph N/A   Overcast